This demonstration page uses our WeatherBlox Daily Observations layout. Learn more.

Left ArrowRight Arrow

Hourly Observations for May 8, 2015

Temp ( °F °C ) Dew Point ( °F °C ) Humidity (%) Winds ( mph kmh ) Pressure ( in mb ) Visibility ( mi km ) Precip ( " mm )
12:07 am 00:07 Mostly Cloudy 61 16 54 12 77 77 NW 8 13 29.91 1013 10 16 0.00 0.00
12:58 am 00:58 Cloudy 59 15 52 10.9 77 77 NW 13 20 29.95 1014 10 16 0.00 0.00
1:43 am 01:43 Cloudy 57 14 52 11 82 82 NW 10 17 29.97 1015 10 16 0.00 0.00
1:58 am 01:58 Cloudy 58 14.2 51 10.7 80 80 NW 10 17 29.97 1015 10 16 0.00 0.00
2:25 am 02:25 Cloudy 57 14 50 10 77 77 WNW 10 17 29.94 1014 10 16 0.00 0.00
2:58 am 02:58 Partly Cloudy 56 13.4 50 10.1 81 81 NW 10 17 29.95 1014 10 16 0.00 0.00
3:24 am 03:24 Mostly Cloudy 55 13 50 10 82 82 NW 12 19 29.94 1014 10 16 0.00 0.00
3:58 am 03:58 Mostly Cloudy 55 12.7 49 9.5 81 81 NW 13 20 29.97 1015 10 16 0.00 0.00
4:58 am 04:58 Cloudy 54 12.4 48 9.1 80 80 VRB 6 9 29.98 1015 10 16 0.00 0.00
5:58 am 05:58 Cloudy 54 12.2 48 8.8 80 80 NW 8 13 30.00 1016 10 16 0.00 0.00
6:58 am 06:58 Cloudy 54 12.2 48 9 81 81 NNW 5 7 30.02 1017 10 16 0.00 0.00
7:58 am 07:58 Cloudy with Mist and Fog 54 12.2 48 8.8 80 80 NW 8 13 30.03 1017 6 10 0.00 0.00
8:58 am 08:58 Cloudy with Mist and Fog 54 12.4 48 8.7 78 78 N 9 15 30.05 1018 8 13 0.00 0.00
9:58 am 09:58 Cloudy with Mist and Fog 55 12.8 48 8.8 77 77 NNW 8 13 30.06 1018 8 13 0.00 0.00
10:58 am 10:58 Cloudy with Mist and Fog 55 13 48 9.1 77 77 N 7 11 30.06 1018 8 13 0.00 0.00
11:58 am 11:58 Cloudy with Mist and Fog 56 13.6 49 9.2 75 75 VRB 7 11 30.07 1018 9 14 0.00 0.00
12:40 pm 12:40 Cloudy 57 14 50 10 77 77 N 6 9 30.06 1018 9 14 0.00 0.00
12:58 pm 12:58 Cloudy 58 14.2 49 9.7 75 75 N 8 13 30.06 1018 9 14 0.00 0.00
1:58 pm 13:58 Cloudy 59 14.8 50 10.1 74 74 N 8 13 30.05 1018 10 16 0.00 0.00
2:58 pm 14:58 Cloudy 60 15.7 51 10.6 72 72 VRB 7 11 30.03 1017 10 16 0.00 0.00
3:58 pm 15:58 Cloudy 61 16 52 11 72 72 N 7 11 30.03 1017 10 16 0.00 0.00
4:58 pm 16:58 Cloudy 60 15.7 52 11.1 74 74 NNE 6 9 30.04 1017 10 16 0.00 0.00
5:58 pm 17:58 Cloudy 61 16.2 52 11.1 72 72 VRB 5 7 30.03 1017 10 16 0.00 0.00
6:58 pm 18:58 Cloudy 61 15.9 51 10.8 72 72 N 6 9 30.02 1017 10 16 0.00 0.00
7:58 pm 19:58 Cloudy 60 15.6 51 10.4 71 71 NNE 8 13 30.02 1017 10 16 0.00 0.00
8:58 pm 20:58 Cloudy 59 15 50 10.2 73 73 NNE 7 11 30.04 1017 10 16 0.00 0.00
9:58 pm 21:58 Cloudy 58 14.2 49 9.7 75 75 NNE 9 15 30.06 1018 10 16 0.00 0.00
10:58 pm 22:58 Cloudy 57 13.7 49 9.6 76 76 N 3 6 30.07 1018 10 16 0.00 0.00
11:58 pm 23:58 Cloudy 56 13.3 49 9.3 77 77 N 5 7 30.07 1018 10 16 0.00 0.00

Powered by AerisWeather